User: anonymous   Login
Location: Platte
(43.3870°N, 98.8440°W)
Time: 06:16:11
(UTC-05:00)
Language:

Landsat 7 - Orbit

View from above orbital plane
View from above orbital plane
View from above satellite
View from above satellite

Ground track
Ground track

The orbit data is extracted from the following two-line orbital elements,

1 25682U 99020A   17083.79936575 -.00000011 +00000-0 +76097-5 0  9990
2 25682 098.2169 156.1019 0000758 081.8388 278.2876 14.57106878954307
Epoch (UTC): 24 March 2017 19:11:05
Eccentricity: 0.0000758
inclination: 98.2169°
perigee height: 702 km
apogee height: 703 km
right ascension of ascending node: 156.1019°
argument of perigee: 81.8388°
revolutions per day: 14.57106878
mean anomaly at epoch: 278.2876°
orbit number at epoch: 95430

The dashed part of the orbit path shows where the satellite is in the earth's shadow,  

DLR